Location: Dana
(41.8364°N, 106.7042°W)
Time: 14:41:47
(UTC+00:00)

SR - Pass Details

Date: 13 May 2026
Orbit: 567 x 853 km, 66.7° (Epoch: 7 June)

Event Time Altitude Azimuth Distance (km) Brightness Sun altitude
Rises 00:14:15 0° 325° (NW) 3,383 ? 21.1°
Reaches altitude 10° 00:16:44 10° 320° (NW) 2,466 ? 20.6°
Maximum altitude 00:22:17 51° 246° (WSW) 1,061 ? 19.6°
Drops below altitude 10° 00:27:49 10° 172° (S) 2,459 ? 18.6°
Sets 00:30:18 0° 167° (SSE) 3,373 ? 18.1°
